Flag for Greece Weather past 2 weeks in Preveza, Greece

Now
59 °F

Passing clouds.


Feels Like: 58 °F
Forecast: 51 / 62 °F
Wind: 7 mph from West

Location: Aktion Airport

Current Time: Apr 2, 2015 at 3:35:37 AM

Latest Report: Apr 2, 2015 at 2:50 AM


Visibility: N/A

Pressure: 29.92 "Hg

Humidity: 88%

Dew point: 55 °F

Location of PrevezaLocation

Historic Weather in Preveza — Graph

°F

Preveza temperature yesterday

Maximum temperature yesterday: 64 °F (at 1:20 PM)
Minimum temperature yesterday: 48 °F (at 4:50 AM)
Average temperature yesterday: 58 °F

Past Weeks' High & Low Weather Summary

 TemperatureHumidityPressure
High70 °F (Mar 24, 12:50 PM)94% (Mar 24, 12:50 AM)30.30 "Hg (Mar 24, 12:50 AM)
Low39 °F (Mar 21, 5:20 AM)16% (Mar 21, 2:50 PM)29.59 "Hg (Mar 27, 3:50 PM)
Average56 °F69%29.94 "Hg
* Reported Mar 18 12:50 AM — Apr 2 1:50 AM, Preveza, Weather by CustomWeather, © 2015

Note: Actual official high and low records may vary slightly from our data, if they occured in-between our weather recording intervals... More about our weather records

Advertising

Preveza weather history for previous 24 hours

 ConditionsComfort  
Time TempWeatherWind HumidityBarometerVisibility
1:50 AM
Thu, Apr 2
57 °FPassing clouds.5 mph94%29.92 "HgN/A
12:50 AM57 °FPassing clouds.No wind88%29.92 "HgN/A
11:50 PM
Wed, Apr 1
57 °FPassing clouds.7 mph94%29.92 "HgN/A
10:50 PM55 °FPassing clouds.5 mph88%29.89 "HgN/A
9:50 PM59 °FPassing clouds.9 mph82%29.86 "HgN/A
8:50 PM59 °FScattered clouds.8 mph82%29.86 "HgN/A
8:20 PM59 °FScattered clouds.10 mph82%29.86 "HgN/A
7:50 PM59 °FScattered clouds.10 mph88%29.83 "HgN/A
7:20 PM61 °FScattered clouds.10 mph83%29.83 "HgN/A
6:50 PM61 °FScattered clouds.12 mph83%29.83 "HgN/A
6:20 PM63 °FScattered clouds.13 mph77%29.83 "HgN/A
5:50 PM63 °FScattered clouds.14 mph77%29.83 "HgN/A
5:20 PM63 °FScattered clouds.15 mph77%29.83 "HgN/A
4:50 PM63 °FScattered clouds.12 mph77%29.83 "HgN/A
4:20 PM63 °FBroken clouds.10 mph77%29.83 "HgN/A
3:50 PM64 °FBroken clouds.10 mph73%29.83 "HgN/A
3:20 PM64 °FBroken clouds.7 mph68%29.83 "HgN/A
2:50 PM64 °FBroken clouds.6 mph68%29.86 "HgN/A
2:20 PM64 °FBroken clouds.8 mph68%29.86 "HgN/A
1:50 PM61 °FBroken clouds.5 mph72%29.86 "HgN/A
1:20 PM64 °FBroken clouds.3 mph68%29.86 "HgN/A
12:50 PM63 °FBroken clouds.No wind73%29.89 "HgN/A
12:20 PM61 °FBroken clouds.3 mph72%29.89 "HgN/A
11:50 AM61 °FBroken clouds.3 mph72%29.89 "HgN/A
11:20 AM59 °FPartly sunny.6 mph77%29.89 "HgN/A
10:50 AM59 °FPartly sunny.6 mph72%29.89 "HgN/A
10:20 AM59 °FScattered clouds.9 mph77%29.89 "HgN/A
9:50 AM57 °FScattered clouds.8 mph82%29.89 "HgN/A
9:20 AM57 °FScattered clouds.6 mph82%29.86 "HgN/A
8:50 AM55 °FScattered clouds.6 mph82%29.86 "HgN/A
8:20 AM54 °FPassing clouds.8 mph94%29.86 "HgN/A
7:50 AM52 °FPassing clouds.6 mph88%29.86 "HgN/A
7:20 AM54 °FPassing clouds.6 mph88%29.86 "HgN/A
6:50 AM52 °FPassing clouds.6 mph88%29.86 "HgN/A
6:20 AM50 °FPassing clouds.No wind88%29.86 "HgN/A
5:50 AM48 °FPassing clouds.No wind94%29.89 "HgN/A
4:50 AM48 °FPassing clouds.No wind87%29.89 "HgN/A
3:50 AM50 °FPassing clouds.No wind88%29.92 "HgN/A
Weather by CustomWeather, © 2015

See weather overviewHow to use our weather pages